�������l�o���
Date,Time,MP-1(��Sv/h),MP-2(��Sv/h),MP-3(��Sv/h),MP-4(��Sv/h),MP-5(��Sv/h),MP-6(��Sv/h),MP-7(��Sv/h),����,����(m/s),���J
2016/07/02,00:00,0.403,0.242,0.417,0.385,0.369,0.196,0.166,��쐼,6.2,��
2016/07/02,00:10,0.405,0.244,0.418,0.383,0.371,0.196,0.168,��쐼,5.3,��
2016/07/02,00:20,0.399,0.240,0.418,0.382,0.369,0.195,0.167,��쐼,4.3,��
2016/07/02,00:30,0.404,0.241,0.416,0.384,0.369,0.196,0.167,��쐼,4.2,��
2016/07/02,00:40,0.402,0.243,0.418,0.382,0.372,0.196,0.167,��쐼,4.2,��
2016/07/02,00:50,0.400,0.241,0.417,0.382,0.368,0.196,0.166,��쐼,3.9,��
2016/07/02,01:00,0.404,0.241,0.416,0.385,0.368,0.197,0.168,�쐼,3.9,��
2016/07/02,01:10,0.402,0.242,0.419,0.384,0.373,0.197,0.167,�쐼,4.0,��
2016/07/02,01:20,0.402,0.240,0.418,0.382,0.370,0.196,0.167,�쐼,2.8,��
2016/07/02,01:30,0.403,0.243,0.415,0.384,0.367,0.196,0.168,�쐼,1.9,��
2016/07/02,01:40,0.401,0.241,0.421,0.383,0.373,0.196,0.168,�쐼,2.5,��
2016/07/02,01:50,0.402,0.241,0.418,0.383,0.369,0.196,0.167,�쐼,2.6,��
2016/07/02,02:00,0.404,0.243,0.416,0.386,0.369,0.196,0.169,��쐼,2.7,��
2016/07/02,02:10,0.401,0.242,0.420,0.384,0.372,0.197,0.168,�쐼,3.1,�L
2016/07/02,02:20,0.404,0.242,0.418,0.384,0.369,0.197,0.168,�쐼,4.1,��
2016/07/02,02:30,0.403,0.244,0.417,0.385,0.369,0.196,0.169,�쐼,3.9,��
2016/07/02,02:40,0.400,0.242,0.420,0.381,0.372,0.196,0.167,�쐼,3.1,��
2016/07/02,02:50,0.405,0.242,0.418,0.384,0.370,0.196,0.167,�쐼,1.8,��
2016/07/02,03:00,0.403,0.244,0.417,0.384,0.370,0.196,0.169,�쐼,1.9,��
2016/07/02,03:10,0.402,0.241,0.422,0.382,0.371,0.196,0.166,��쐼,1.4,��
2016/07/02,03:20,0.404,0.243,0.418,0.386,0.368,0.197,0.169,��,1.1,��
2016/07/02,03:30,0.401,0.241,0.418,0.382,0.370,0.195,0.169,��쓌,1.5,��
2016/07/02,03:40,0.403,0.242,0.419,0.383,0.372,0.196,0.167,��쓌,2.6,��
2016/07/02,03:50,0.403,0.244,0.417,0.386,0.368,0.197,0.169,��쓌,2.9,��
2016/07/02,04:00,0.400,0.242,0.421,0.384,0.373,0.196,0.168,��,3.4,��
2016/07/02,04:10,0.405,0.243,0.420,0.386,0.369,0.197,0.169,��쐼,3.0,��
2016/07/02,04:20,0.402,0.243,0.417,0.386,0.369,0.195,0.168,��쐼,2.8,��
2016/07/02,04:30,0.403,0.241,0.421,0.382,0.372,0.198,0.168,��쐼,3.0,��
2016/07/02,04:40,0.403,0.243,0.417,0.387,0.368,0.198,0.169,��쐼,2.1,��
2016/07/02,04:50,0.401,0.242,0.419,0.382,0.371,0.195,0.167,��쐼,2.4,��
2016/07/02,05:00,0.404,0.241,0.421,0.383,0.372,0.196,0.167,��쐼,3.1,��
2016/07/02,05:10,0.402,0.243,0.417,0.386,0.368,0.195,0.168,��쐼,3.4,��
2016/07/02,05:20,0.402,0.241,0.418,0.383,0.372,0.198,0.167,��,3.1,��
2016/07/02,05:30,0.406,0.243,0.420,0.385,0.371,0.197,0.169,��쐼,3.1,��
2016/07/02,05:40,0.403,0.244,0.415,0.384,0.368,0.196,0.168,��쐼,3.3,��
2016/07/02,05:50,0.401,0.241,0.420,0.383,0.371,0.197,0.168,��,3.9,��
2016/07/02,06:00,0.404,0.244,0.418,0.386,0.370,0.196,0.169,��쐼,5.1,��
2016/07/02,06:10,0.399,0.243,0.418,0.384,0.367,0.196,0.168,��쐼,4.7,��
2016/07/02,06:20,0.402,0.241,0.419,0.382,0.371,0.196,0.167,��,6.5,��
2016/07/02,06:30,0.404,0.242,0.419,0.385,0.371,0.195,0.167,��,6.6,��
2016/07/02,06:40,0.401,0.242,0.413,0.384,0.367,0.195,0.167,��,7.3,��
2016/07/02,06:50,0.401,0.243,0.420,0.381,0.368,0.197,0.168,��,8.0,��
2016/07/02,07:00,0.405,0.239,0.418,0.384,0.372,0.196,0.165,��,7.9,��
2016/07/02,07:10,0.403,0.242,0.415,0.384,0.370,0.195,0.167,��,8.7,��
2016/07/02,07:20,0.399,0.242,0.416,0.384,0.366,0.197,0.166,��,9.1,��
2016/07/02,07:30,0.403,0.240,0.420,0.380,0.368,0.195,0.165,��,10.3,��
2016/07/02,07:40,0.402,0.239,0.418,0.383,0.372,0.195,0.167,��,10.7,��
2016/07/02,07:50,0.399,0.241,0.414,0.383,0.369,0.195,0.168,��,10.3,��
2016/07/02,08:00,0.400,0.241,0.417,0.382,0.368,0.196,0.167,��,10.1,��
2016/07/02,08:10,0.406,0.241,0.419,0.378,0.366,0.195,0.165,��,10.5,��
2016/07/02,08:20,0.402,0.240,0.417,0.382,0.372,0.195,0.166,��,10.6,��
2016/07/02,08:30,0.399,0.240,0.416,0.386,0.369,0.196,0.168,��,11.0,��
2016/07/02,08:40,0.400,0.239,0.416,0.382,0.368,0.196,0.166,��,11.2,��
2016/07/02,08:50,0.404,0.241,0.420,0.379,0.366,0.194,0.165,��쓌,10.8,��
2016/07/02,09:00,0.404,0.241,0.417,0.385,0.371,0.194,0.166,��쓌,11.0,��
2016/07/02,09:10,0.401,0.241,0.415,0.384,0.371,0.196,0.167,��,11.0,��
2016/07/02,09:20,0.399,0.240,0.418,0.382,0.368,0.196,0.167,��,10.0,��
2016/07/02,09:30,0.405,0.240,0.420,0.382,0.366,0.194,0.165,��,12.1,��
2016/07/02,09:40,0.402,0.242,0.418,0.387,0.372,0.196,0.167,��,12.3,��
2016/07/02,09:50,0.399,0.242,0.416,0.383,0.370,0.197,0.167,��,12.4,��
2016/07/02,10:00,0.400,0.240,0.417,0.379,0.368,0.195,0.166,��,12.5,��
2016/07/02,10:10,0.406,0.240,0.419,0.382,0.366,0.195,0.168,��,14.1,��
2016/07/02,10:20,0.404,0.242,0.417,0.386,0.371,0.196,0.167,��,13.9,��
2016/07/02,10:30,0.400,0.242,0.414,0.382,0.374,0.195,0.167,��,12.9,��
2016/07/02,10:40,0.398,0.241,0.414,0.383,0.369,0.195,0.166,��,11.8,��
2016/07/02,10:50,0.403,0.240,0.420,0.379,0.368,0.194,0.166,��,13.1,��
2016/07/02,11:00,0.406,0.240,0.421,0.383,0.365,0.196,0.167,��,12.8,��
2016/07/02,11:10,0.402,0.240,0.419,0.386,0.370,0.196,0.168,��,11.1,��
2016/07/02,11:20,0.400,0.241,0.416,0.385,0.372,0.197,0.167,��,12.0,��
2016/07/02,11:30,0.400,0.240,0.417,0.382,0.371,0.197,0.167,��쐼,9.2,��
2016/07/02,11:40,0.401,0.240,0.415,0.382,0.370,0.195,0.166,��쐼,10.4,��
2016/07/02,11:50,0.399,0.241,0.414,0.381,0.368,0.196,0.166,��쐼,9.8,��
2016/07/02,12:00,0.399,0.240,0.415,0.380,0.367,0.195,0.167,��쐼,11.2,��
2016/07/02,12:10,0.405,0.241,0.415,0.380,0.366,0.197,0.166,��,10.1,��
2016/07/02,12:20,0.405,0.242,0.421,0.382,0.365,0.196,0.169,��,10.1,��
2016/07/02,12:30,0.403,0.243,0.421,0.387,0.367,0.197,0.168,��,11.2,��
2016/07/02,12:40,0.400,0.242,0.418,0.385,0.374,0.198,0.167,��,10.7,��
2016/07/02,12:50,0.404,0.242,0.418,0.385,0.371,0.196,0.167,��,10.1,��
2016/07/02,13:00,0.405,0.242,0.417,0.383,0.369,0.197,0.167,��,9.2,��
2016/07/02,13:10,0.405,0.241,0.415,0.381,0.368,0.196,0.168,��,11.0,��
2016/07/02,13:20,0.403,0.242,0.418,0.382,0.369,0.197,0.168,��,11.4,��
2016/07/02,13:30,0.401,0.241,0.417,0.382,0.369,0.197,0.168,��,10.9,��
2016/07/02,13:40,0.399,0.241,0.417,0.382,0.366,0.196,0.167,��,11.4,��
2016/07/02,13:50,0.398,0.240,0.418,0.386,0.368,0.198,0.167,��,11.5,��
2016/07/02,14:00,0.405,0.242,0.422,0.388,0.368,0.198,0.168,��,10.2,��
2016/07/02,14:10,0.407,0.243,0.423,0.385,0.373,0.197,0.168,��,11.0,��
2016/07/02,14:20,0.403,0.243,0.420,0.384,0.373,0.196,0.167,��,10.7,��
2016/07/02,14:30,0.401,0.240,0.418,0.384,0.369,0.197,0.167,��,11.2,��
2016/07/02,14:40,0.403,0.240,0.417,0.388,0.369,0.198,0.168,��,12.9,��
2016/07/02,14:50,0.405,0.242,0.420,0.388,0.367,0.197,0.167,��,10.7,��
2016/07/02,15:00,0.406,0.244,0.424,0.385,0.367,0.196,0.167,��,10.4,��
2016/07/02,15:10,0.401,0.243,0.421,0.384,0.371,0.196,0.167,��,10.1,��
2016/07/02,15:20,0.401,0.242,0.419,0.382,0.374,0.196,0.168,��,11.8,��
2016/07/02,15:30,0.406,0.242,0.417,0.386,0.372,0.197,0.168,��,12.4,�L
2016/07/02,15:40,0.405,0.243,0.418,0.387,0.369,0.197,0.167,��,11.3,��
2016/07/02,15:50,0.401,0.243,0.422,0.384,0.368,0.196,0.166,��,10.4,��
2016/07/02,16:00,0.400,0.243,0.420,0.381,0.367,0.196,0.169,��,10.6,��
2016/07/02,16:10,0.407,0.241,0.418,0.385,0.372,0.196,0.169,��쐼,8.6,��
2016/07/02,16:20,0.405,0.242,0.417,0.387,0.372,0.197,0.167,��,7.5,��
2016/07/02,16:30,0.401,0.243,0.418,0.384,0.371,0.198,0.167,��,8.1,��
2016/07/02,16:40,0.400,0.244,0.423,0.384,0.369,0.196,0.168,��,8.2,��
2016/07/02,16:50,0.407,0.241,0.420,0.386,0.371,0.197,0.167,��쐼,7.2,��
2016/07/02,17:00,0.405,0.242,0.416,0.388,0.374,0.197,0.166,��쐼,7.9,��
2016/07/02,17:10,0.402,0.244,0.417,0.385,0.372,0.197,0.168,��쐼,7.8,��
2016/07/02,17:20,0.403,0.243,0.423,0.383,0.368,0.196,0.168,��쐼,8.0,��
2016/07/02,17:30,0.407,0.242,0.420,0.388,0.369,0.196,0.166,��쐼,7.8,��
2016/07/02,17:40,0.406,0.244,0.417,0.386,0.374,0.196,0.168,��쐼,6.7,��
2016/07/02,17:50,0.400,0.243,0.417,0.385,0.371,0.196,0.168,��쐼,7.5,��
2016/07/02,18:00,0.403,0.243,0.423,0.382,0.370,0.197,0.168,��쐼,6.7,��
2016/07/02,18:10,0.405,0.240,0.421,0.388,0.369,0.197,0.167,��쐼,6.6,��
2016/07/02,18:20,0.401,0.244,0.419,0.387,0.374,0.198,0.169,��,5.8,��
2016/07/02,18:30,0.401,0.243,0.418,0.383,0.371,0.196,0.168,��,6.4,��
2016/07/02,18:40,0.407,0.241,0.423,0.386,0.369,0.197,0.168,��,6.6,��
2016/07/02,18:50,0.404,0.243,0.420,0.388,0.371,0.198,0.169,��쐼,5.1,��
2016/07/02,19:00,0.401,0.243,0.418,0.384,0.372,0.198,0.168,��쐼,4.3,��
2016/07/02,19:10,0.407,0.243,0.422,0.385,0.371,0.197,0.167,���k��,1.1,��
2016/07/02,19:20,0.405,0.243,0.422,0.388,0.369,0.197,0.168,�쐼,2.8,��
2016/07/02,19:30,0.401,0.244,0.418,0.384,0.374,0.197,0.168,�쐼,3.4,��
2016/07/02,19:40,0.404,0.243,0.418,0.383,0.371,0.197,0.167,��쐼,4.0,��
2016/07/02,19:50,0.406,0.242,0.423,0.388,0.369,0.197,0.168,��쐼,2.4,��
2016/07/02,20:00,0.402,0.244,0.419,0.387,0.369,0.197,0.168,��쐼,3.2,��
2016/07/02,20:10,0.403,0.242,0.417,0.385,0.373,0.197,0.167,��쐼,2.9,��
2016/07/02,20:20,0.407,0.242,0.422,0.386,0.371,0.197,0.171,��쐼,1.8,��
2016/07/02,20:30,0.404,0.243,0.422,0.389,0.369,0.197,0.168,�쐼,2.2,��
2016/07/02,20:40,0.403,0.242,0.419,0.385,0.375,0.197,0.169,��쐼,1.8,��
2016/07/02,20:50,0.406,0.243,0.421,0.386,0.371,0.197,0.169,-,CALM,��
2016/07/02,21:00,0.403,0.243,0.423,0.388,0.368,0.196,0.169,���k��,0.5,��
2016/07/02,21:10,0.404,0.242,0.421,0.385,0.374,0.197,0.168,�k�k��,0.7,��
2016/07/02,21:20,0.406,0.243,0.417,0.385,0.373,0.198,0.169,-,CALM,��
2016/07/02,21:30,0.403,0.245,0.424,0.389,0.368,0.197,0.168,��쓌,1.0,��
2016/07/02,21:40,0.404,0.242,0.421,0.385,0.371,0.197,0.168,��쓌,0.8,��
2016/07/02,21:50,0.405,0.244,0.419,0.383,0.374,0.198,0.169,��쐼,0.8,��
2016/07/02,22:00,0.402,0.242,0.422,0.387,0.370,0.196,0.168,��,2.2,��
2016/07/02,22:10,0.405,0.242,0.422,0.385,0.370,0.198,0.170,��쐼,2.5,��
2016/07/02,22:20,0.404,0.244,0.419,0.384,0.374,0.197,0.168,��쐼,1.3,��
2016/07/02,22:30,0.403,0.243,0.423,0.388,0.372,0.197,0.169,��,1.3,��
2016/07/02,22:40,0.406,0.243,0.421,0.385,0.367,0.198,0.169,���k��,1.1,��
2016/07/02,22:50,0.403,0.243,0.416,0.384,0.372,0.197,0.168,���k��,0.8,��
2016/07/02,23:00,0.404,0.242,0.421,0.387,0.372,0.197,0.168,�쐼,0.8,��
2016/07/02,23:10,0.406,0.243,0.422,0.387,0.368,0.197,0.170,��쐼,1.6,��
2016/07/02,23:20,0.403,0.245,0.418,0.383,0.371,0.196,0.168,��,3.3,��
2016/07/02,23:30,0.403,0.242,0.423,0.388,0.373,0.197,0.168,��,2.8,��
2016/07/02,23:40,0.406,0.243,0.421,0.386,0.369,0.197,0.169,��,1.8,��
2016/07/02,23:50,0.404,0.243,0.417,0.385,0.370,0.197,0.168,��,1.2,��
